TimeMDT,TemperatureF,Dew PointF,Humidity,Sea Level PressureIn,VisibilityMPH,Wind Direction,Wind SpeedMPH,Gust SpeedMPH,PrecipitationIn,Events,Conditions,WindDirDegrees,DateUTC
12:15 AM,61.3,8.2,12,29.99,10.0,SW,3.5,-,N/A,,Clear,220,2013-03-16 06:15:00
12:35 AM,62.1,7.7,12,30.00,10.0,SSW,5.8,-,N/A,,Clear,210,2013-03-16 06:35:00
12:55 AM,61.9,7.5,12,30.00,10.0,WNW,3.5,-,N/A,,Clear,290,2013-03-16 06:55:00
1:15 AM,59.9,7.5,13,30.00,10.0,West,8.1,-,N/A,,Clear,260,2013-03-16 07:15:00
1:35 AM,58.6,7.5,13,29.99,10.0,WSW,11.5,-,N/A,,Clear,250,2013-03-16 07:35:00
1:55 AM,59.0,8.1,13,29.99,10.0,West,11.5,-,N/A,,Clear,260,2013-03-16 07:55:00
2:15 AM,58.1,8.4,14,29.99,10.0,West,12.7,-,N/A,,Clear,260,2013-03-16 08:15:00
2:35 AM,56.5,7.7,14,29.98,10.0,West,10.4,-,N/A,,Clear,260,2013-03-16 08:35:00
2:55 AM,52.9,6.6,16,29.98,10.0,West,10.4,-,N/A,,Clear,260,2013-03-16 08:55:00
3:15 AM,52.7,6.8,16,29.97,10.0,West,9.2,-,N/A,,Clear,260,2013-03-16 09:15:00
3:35 AM,53.6,7.3,16,29.96,10.0,WSW,10.4,-,N/A,,Clear,250,2013-03-16 09:35:00
3:55 AM,52.3,7.9,17,29.96,10.0,West,11.5,-,N/A,,Clear,260,2013-03-16 09:55:00
4:15 AM,54.1,9.1,17,29.95,10.0,West,11.5,-,N/A,,Clear,260,2013-03-16 10:15:00
4:35 AM,54.5,9.5,17,29.95,10.0,West,15.0,-,N/A,,Clear,260,2013-03-16 10:35:00
4:55 AM,53.6,9.7,17,29.95,10.0,West,12.7,-,N/A,,Clear,270,2013-03-16 10:55:00
5:15 AM,51.3,10.0,19,29.95,10.0,West,12.7,-,N/A,,Clear,280,2013-03-16 11:15:00
5:35 AM,51.8,11.7,20,29.95,10.0,West,13.8,-,N/A,,Clear,270,2013-03-16 11:35:00
5:55 AM,52.7,12.2,20,29.95,10.0,West,16.1,-,N/A,,Clear,260,2013-03-16 11:55:00
6:15 AM,51.8,12.6,21,29.95,10.0,West,13.8,-,N/A,,Clear,260,2013-03-16 12:15:00
6:35 AM,49.5,12.0,22,29.96,10.0,West,13.8,-,N/A,,Clear,260,2013-03-16 12:35:00
6:55 AM,49.3,12.0,22,29.97,10.0,West,12.7,-,N/A,,Clear,270,2013-03-16 12:55:00
7:15 AM,50.0,12.2,22,29.98,10.0,West,13.8,-,N/A,,Clear,270,2013-03-16 13:15:00
7:35 AM,49.8,12.0,22,29.98,10.0,NW,8.1,-,N/A,,Clear,320,2013-03-16 13:35:00
7:55 AM,50.9,11.3,20,29.99,10.0,NW,5.8,-,N/A,,Clear,310,2013-03-16 13:55:00
8:15 AM,51.8,11.1,20,29.99,10.0,NE,4.6,-,N/A,,Clear,40,2013-03-16 14:15:00
8:35 AM,54.9,11.3,18,30.00,10.0,NW,3.5,-,N/A,,Clear,310,2013-03-16 14:35:00
8:55 AM,58.1,13.3,17,29.99,10.0,West,5.8,-,N/A,,Clear,260,2013-03-16 14:55:00
9:15 AM,61.9,14.2,16,30.00,10.0,West,11.5,-,N/A,,Clear,260,2013-03-16 15:15:00
9:35 AM,64.0,14.9,15,30.00,10.0,West,10.4,-,N/A,,Clear,260,2013-03-16 15:35:00
9:55 AM,65.8,15.3,14,29.99,10.0,West,13.8,-,N/A,,Clear,260,2013-03-16 15:55:00
10:15 AM,68.0,15.8,13,29.99,10.0,West,11.5,-,N/A,,Clear,260,2013-03-16 16:15:00
10:35 AM,69.6,16.5,13,29.99,10.0,West,12.7,-,N/A,,Clear,260,2013-03-16 16:35:00
10:55 AM,70.7,16.7,13,29.99,10.0,West,10.4,-,N/A,,Clear,260,2013-03-16 16:55:00
11:15 AM,74.1,17.6,12,29.98,10.0,West,16.1,-,N/A,,Clear,260,2013-03-16 17:15:00
11:35 AM,75.0,17.6,11,29.98,10.0,West,18.4,21.9,N/A,,Clear,260,2013-03-16 17:35:00
11:55 AM,75.6,18.0,11,29.97,10.0,West,13.8,20.7,N/A,,Clear,260,2013-03-16 17:55:00
12:15 PM,76.1,18.3,11,29.96,10.0,West,21.9,26.5,N/A,,Clear,270,2013-03-16 18:15:00
12:55 PM,78.3,18.3,11,29.95,10.0,WSW,19.6,27.6,N/A,,Clear,250,2013-03-16 18:55:00
1:15 PM,79.5,14.9,9,29.93,10.0,WSW,17.3,28.8,N/A,,Clear,250,2013-03-16 19:15:00
1:35 PM,80.4,15.6,9,29.91,10.0,WSW,24.2,31.1,N/A,,Clear,250,2013-03-16 19:35:00
1:55 PM,80.1,15.6,9,29.90,10.0,West,26.5,32.2,N/A,,Clear,260,2013-03-16 19:55:00
2:15 PM,80.8,15.6,9,29.89,10.0,West,21.9,29.9,N/A,,Clear,260,2013-03-16 20:15:00
2:35 PM,80.6,16.7,9,29.88,10.0,West,20.7,31.1,N/A,,Clear,270,2013-03-16 20:35:00
2:55 PM,81.1,17.4,9,29.87,10.0,WSW,25.3,35.7,N/A,,Clear,250,2013-03-16 20:55:00
3:15 PM,79.9,15.8,9,29.86,10.0,West,26.5,35.7,N/A,,Clear,260,2013-03-16 21:15:00
3:35 PM,81.0,13.5,8,29.84,10.0,WSW,27.6,38.0,N/A,,Clear,250,2013-03-16 21:35:00
3:55 PM,81.0,14.0,8,29.84,10.0,West,18.4,33.4,N/A,,Clear,270,2013-03-16 21:55:00
4:15 PM,81.1,13.6,8,29.84,10.0,WSW,23.0,33.4,N/A,,Clear,240,2013-03-16 22:15:00
4:35 PM,81.3,13.1,8,29.84,10.0,West,24.2,36.8,N/A,,Clear,260,2013-03-16 22:35:00
4:55 PM,80.6,12.0,7,29.83,10.0,WSW,21.9,34.5,N/A,,Clear,240,2013-03-16 22:55:00
5:15 PM,78.1,12.2,8,29.83,10.0,West,25.3,34.5,N/A,,Clear,260,2013-03-16 23:15:00
5:35 PM,77.4,13.1,9,29.83,10.0,West,25.3,33.4,N/A,,Clear,270,2013-03-16 23:35:00
5:55 PM,76.3,12.7,9,29.83,10.0,West,25.3,33.4,N/A,,Clear,260,2013-03-16 23:55:00
6:15 PM,75.4,11.8,9,29.84,10.0,West,20.7,33.4,N/A,Thunderstorm,Thunderstorm,270,2013-03-17 00:15:00
6:35 PM,74.7,14.7,10,29.84,10.0,WNW,17.3,26.5,N/A,,Clear,290,2013-03-17 00:35:00
6:55 PM,74.3,12.9,10,29.84,10.0,West,12.7,17.3,N/A,,Clear,270,2013-03-17 00:55:00
7:15 PM,73.4,12.6,10,29.84,10.0,West,13.8,-,N/A,,Clear,280,2013-03-17 01:15:00
7:35 PM,72.3,12.2,10,29.84,10.0,West,11.5,-,N/A,,Clear,280,2013-03-17 01:35:00
7:55 PM,70.9,12.7,11,29.84,10.0,West,10.4,-,N/A,,Clear,280,2013-03-17 01:55:00
8:15 PM,66.9,12.2,12,29.86,10.0,WNW,6.9,-,N/A,,Clear,300,2013-03-17 02:15:00
8:35 PM,64.0,11.5,13,29.86,10.0,WNW,6.9,-,N/A,,Clear,290,2013-03-17 02:35:00
8:55 PM,61.0,10.8,14,29.86,10.0,WNW,6.9,-,N/A,,Clear,300,2013-03-17 02:55:00
9:15 PM,60.6,10.6,14,29.87,10.0,NW,5.8,-,N/A,,Clear,310,2013-03-17 03:15:00
9:35 PM,58.8,10.2,15,29.87,10.0,NW,5.8,-,N/A,,Clear,310,2013-03-17 03:35:00
9:55 PM,58.6,10.2,15,29.88,10.0,WNW,5.8,-,N/A,,Clear,300,2013-03-17 03:55:00
10:15 PM,57.9,10.2,15,29.88,10.0,WNW,5.8,-,N/A,,Clear,300,2013-03-17 04:15:00
10:35 PM,55.4,8.6,15,29.88,10.0,West,6.9,-,N/A,,Clear,280,2013-03-17 04:35:00
10:55 PM,55.9,9.5,16,29.88,10.0,WNW,5.8,-,N/A,,Clear,290,2013-03-17 04:55:00
11:15 PM,54.9,9.1,16,29.89,10.0,NW,9.2,-,N/A,,Clear,310,2013-03-17 05:15:00
11:35 PM,55.0,9.5,16,29.89,10.0,NNW,8.1,-,N/A,,Clear,330,2013-03-17 05:35:00
11:55 PM,54.9,10.8,17,29.89,10.0,NW,8.1,-,N/A,,Clear,310,2013-03-17 05:55:00